User: anonymous   Login
Location: Unspecified
(0.0000°N, 0.0000°E)
Time: 21:25:25
(UTC+00:00)
Language:

Kosmos-1506 - Orbit

View from above orbital plane
View from above orbital plane
View from above satellite
View from above satellite

Ground track
Ground track

The orbit data is extracted from the following two-line orbital elements,

1 14450U 83108A   18051.90059733 +.00000039 +00000-0 +24480-4 0  9999
2 14450 082.9325 011.2974 0042018 212.4864 200.1062 13.76229753539723
Epoch (UTC): 20 February 2018 21:36:51
Eccentricity: 0.0042018
inclination: 82.9325°
perigee height: 946 km
apogee height: 1008 km
right ascension of ascending node: 11.2974°
argument of perigee: 212.4864°
revolutions per day: 13.76229753
mean anomaly at epoch: 200.1062°
orbit number at epoch: 53972

The dashed part of the orbit path shows where the satellite is in the earth's shadow,  

DLR